Tracking 21092 objects as of 14-Aug-2020
HD Live streaming from Space Station
objects crossing your sky now
Track the most recent launched group of Starlink satellites

ZHEDA PIXING 3A

Track ZHEDA PIXING 3A now!
10-day predictions


NORAD ID: 45795
Int'l Code: 2020-039B
Perigee: 490.5 km
Apogee: 511.9 km
Inclination: 97.3 °
Period: 94.5 minutes
Semi major axis: 6872 km
RCS: Unknown
Launch date: June 17, 2020
Source: People's Republic of China (PRC)
Launch site: Jiuquan Satellite Launch Center, China (JSC)
aabbcc
Your satellite tracking list
Your tracking list is empty




NASA's NSSDC Master Catalog

Two Line Element Set (TLE):
1 45795U 20039B   20227.20727701  .00000561  00000-0  26032-4 0  9992
2 45795  97.3279 347.4108 0015541  69.4615 340.1118 15.23918358  8802
Source of the keplerian elements: AFSPC